Theta_e
334 334 335 326 324 323 318 318 299 311 306 297 295 297 297 304 303 302 302 304 302 306 307 307 307 308 304 303 303 305 305 303 307 297 300 318 328 332 336 334 339 338 342 343 344 344 346 347 350 351 352 351 351 352 351 351 350 350 350 350 350 349 350 349 349 349 349 349 349 349 349 348 348 348 348 347 347 347 347 347 346 346 346 347 347 349 348 348 347 348 347 347 344 341 341 340 338
333 329 326 328 324 323 313 313 303 298 301 296 297 298 299 306 302 301 300 302 305 306 307 306 306 306 307 306 305 306 305 307 313 309 322 329 329 329 338 334 336 335 340 343 344 345 346 346 348 350 352 351 351 351 351 351 350 350 350 350 350 350 350 349 349 349 349 349 349 349 349 348 348 348 347 347 347 347 347 346 346 346 347 346 347 347 347 347 347 347 346 344 342 340 339 338 337
326 329 324 325 321 318 313 311 299 297 295 292 294 297 302 299 300 302 303 304 306 307 307 306 308 307 306 306 304 305 300 310 310 311 316 327 325 324 337 335 335 335 341 344 343 344 345 346 346 350 352 351 351 351 351 350 350 350 350 350 350 350 350 349 349 349 349 349 349 349 349 349 348 348 347 347 347 346 346 346 346 347 346 346 346 347 347 347 347 346 345 343 341 339 338 337 336
329 331 324 321 312 318 308 305 304 298 294 293 293 300 299 303 300 302 305 306 307 306 307 309 306 309 306 302 305 306 305 308 310 313 315 322 326 329 336 333 332 335 337 345 342 343 344 345 345 350 351 351 351 352 351 351 350 350 350 350 349 349 350 349 349 348 349 348 349 349 349 348 347 348 347 347 346 346 346 346 346 345 346 346 346 346 346 346 345 344 343 342 340 338 337 336 335
327 330 325 319 317 309 309 304 298 297 292 296 293 300 299 301 302 302 304 306 306 306 308 307 305 309 310 306 307 303 305 311 310 314 316 327 331 332 334 335 334 332 336 342 342 343 343 343 345 347 351 351 350 351 351 351 350 350 350 349 350 349 349 349 349 349 349 349 349 349 348 348 347 347 346 346 345 345 345 345 345 345 345 345 345 344 345 344 344 342 341 341 338 336 335 334 334
327 324 329 324 311 315 310 298 297 294 298 301 297 297 300 301 301 303 304 307 307 306 307 306 304 305 306 307 309 303 310 305 312 315 321 327 335 335 335 335 329 331 335 339 342 341 343 341 344 346 351 351 351 351 351 351 350 350 350 349 350 349 349 349 349 349 348 349 349 348 348 348 348 347 346 345 345 345 345 344 344 344 343 343 343 342 342 342 342 340 340 339 337 335 334 332 332
324 321 320 319 317 311 301 296 294 296 299 302 300 299 300 301 302 303 303 305 307 307 308 306 307 306 302 308 309 310 313 315 312 326 332 330 331 333 335 331 326 331 335 336 341 341 344 341 345 349 350 350 351 350 351 351 351 350 350 349 349 349 349 349 348 349 349 349 349 348 347 347 346 346 346 344 344 344 344 342 342 342 342 341 340 340 339 340 340 339 337 337 336 334 331 330 329
325 318 318 307 306 303 298 297 297 299 300 302 303 302 303 303 304 304 303 303 304 303 304 308 306 305 303 308 302 313 315 317 327 329 329 329 333 335 334 328 325 326 335 335 338 340 340 340 345 347 349 351 350 350 351 350 350 350 350 349 349 348 348 348 348 349 349 349 348 348 348 347 347 346 345 344 343 342 342 341 340 341 340 340 339 338 337 337 337 337 336 335 334 331 329 328 327
321 315 319 308 301 306 299 298 298 301 301 303 302 310 309 306 306 305 303 305 304 307 306 306 305 302 304 305 304 312 313 322 321 323 327 330 331 334 334 330 326 327 334 335 337 343 340 340 343 346 347 349 350 351 351 351 350 349 349 349 348 348 348 349 348 349 350 349 348 347 347 347 347 346 344 344 343 342 341 340 339 338 339 339 339 337 336 336 336 335 335 332 331 329 327 326 325
317 314 307 307 305 296 297 297 297 300 301 303 302 303 303 304 304 305 304 303 305 305 306 305 306 302 305 302 304 310 313 317 320 320 322 324 331 333 331 333 332 332 333 333 339 343 340 338 340 342 344 347 349 350 351 350 350 349 349 348 348 349 348 348 349 349 349 348 348 347 347 347 346 345 344 343 342 342 341 340 339 338 338 338 337 337 336 334 334 333 332 330 329 327 325 324 323
310 314 314 303 300 296 298 295 297 299 300 302 302 306 305 304 304 303 304 303 305 305 305 306 303 302 304 304 304 322 317 315 315 317 320 324 331 330 329 334 334 334 332 334 337 342 341 339 337 339 342 343 346 348 349 350 350 349 349 349 348 349 348 349 348 349 349 348 348 347 347 347 346 344 343 343 343 342 340 340 339 336 335 336 336 334 332 332 331 331 329 330 327 325 324 323 322
309 308 310 300 296 296 295 294 297 298 301 301 300 304 303 305 306 303 304 302 303 304 303 305 304 306 302 302 305 314 314 315 321 320 322 326 326 329 331 331 335 336 336 335 337 339 340 340 338 337 338 338 342 344 346 347 348 349 348 349 349 349 349 349 349 349 350 349 347 347 347 346 345 344 343 343 343 342 337 334 332 332 333 332 332 331 331 331 330 330 329 328 326 325 324 322 321
310 309 302 298 297 297 298 295 297 297 298 299 302 304 304 305 303 304 303 302 302 301 302 307 308 308 300 302 308 312 310 317 321 322 322 321 325 328 332 332 334 335 337 335 335 335 340 340 339 339 337 334 335 337 340 342 344 346 347 348 347 348 348 348 349 349 348 348 347 347 347 345 344 344 344 344 342 338 335 334 334 333 332 331 331 331 330 330 329 329 328 326 324 324 323 322 320
312 311 305 298 300 297 295 297 297 296 296 300 302 304 306 303 305 305 302 300 301 301 306 308 306 305 301 303 303 307 314 317 319 322 320 326 328 328 329 329 331 333 334 335 333 334 335 339 340 339 339 337 340 335 333 338 341 344 345 345 345 346 346 347 347 347 347 347 346 345 343 342 343 343 343 340 339 338 337 336 336 332 331 331 330 331 330 330 328 328 327 325 324 324 322 321 319
310 312 305 302 296 297 298 295 298 296 294 300 302 303 302 305 304 305 302 299 301 306 308 309 309 303 297 302 302 312 312 317 318 322 325 327 328 328 328 329 331 330 331 334 334 333 334 336 338 339 339 340 341 341 340 338 334 339 341 342 343 343 344 344 345 344 343 344 343 341 337 334 334 336 335 337 337 335 332 330 334 332 331 330 330 330 329 328 328 328 326 325 324 323 322 320 317
315 310 306 300 295 295 297 299 301 298 296 301 302 303 302 303 304 303 304 305 304 307 307 302 307 302 303 302 305 314 315 317 320 323 321 323 323 325 326 327 327 328 328 331 332 332 333 334 334 336 339 340 341 341 341 341 333 332 336 338 339 341 341 342 341 339 336 335 335 332 328 327 326 328 327 329 330 333 330 327 330 333 331 330 330 329 329 328 328 327 326 325 323 321 320 317 315
313 312 299 297 294 296 298 298 300 294 298 301 302 303 302 301 305 306 306 307 302 303 304 305 304 307 304 305 309 312 315 317 319 320 321 319 319 318 319 320 321 323 329 328 330 331 332 333 333 334 337 338 339 339 341 341 339 330 331 332 333 336 338 337 338 332 327 325 326 323 321 328 327 326 326 326 323 325 323 324 328 332 331 331 331 330 329 328 327 326 325 324 322 320 317 315 313
312 302 298 294 296 296 300 299 300 301 297 299 301 302 300 299 303 304 304 303 302 303 303 305 306 306 307 308 310 315 316 317 319 319 319 317 316 315 316 317 319 320 324 326 329 330 331 332 333 333 333 335 336 337 338 339 339 332 336 336 334 333 330 329 331 333 326 329 322 322 326 327 327 326 325 324 324 323 322 321 326 331 331 332 332 330 328 328 327 326 326 324 322 318 313 305 305
305 300 298 294 298 300 303 302 302 300 299 301 301 301 301 300 301 304 299 300 300 300 302 303 303 304 307 308 308 313 315 315 318 316 316 316 316 315 315 316 318 319 322 324 327 329 330 331 332 333 332 334 335 335 336 335 336 336 337 337 336 329 330 329 332 330 330 330 326 325 325 326 326 326 325 325 324 321 322 320 325 328 330 329 331 330 328 327 326 326 325 323 319 315 309 302 300
305 300 295 297 302 303 305 305 304 305 303 302 301 301 300 301 301 305 300 299 300 299 300 300 301 302 304 305 307 310 313 313 315 314 312 313 316 316 314 317 318 318 321 325 326 329 329 330 331 332 332 332 333 334 335 334 334 335 337 337 336 334 333 331 331 331 330 330 327 326 325 325 326 326 324 321 323 322 321 319 323 324 326 326 326 326 327 326 325 325 324 321 317 311 306 303 301
305 301 297 299 301 299 301 303 304 304 303 301 301 301 300 301 302 302 300 298 299 301 303 302 302 303 303 304 305 310 308 310 311 313 312 311 313 315 314 314 318 320 321 325 325 328 329 330 331 332 332 332 332 332 332 332 332 334 335 336 336 335 333 332 331 331 330 330 329 327 325 324 326 325 323 322 322 321 319 318 319 320 320 319 320 318 319 320 320 315 313 311 305 304 303 302 303
306 300 302 303 303 300 303 303 303 303 304 302 301 299 300 303 302 301 300 297 297 300 303 304 304 305 304 304 305 305 305 307 307 310 311 311 311 311 313 312 313 319 321 322 324 326 328 330 331 332 332 332 332 332 331 330 330 330 333 334 334 334 333 333 332 331 330 330 329 327 326 325 325 324 322 321 321 321 319 318 318 319 318 319 319 318 315 317 314 311 309 307 304 302 301 300 300
299 302 303 303 304 301 304 304 304 302 302 301 300 302 302 301 300 302 301 300 302 305 305 306 307 307 307 307 306 305 305 305 306 308 309 310 311 311 311 311 312 312 319 320 324 326 328 329 330 331 331 331 331 332 331 330 329 330 330 330 331 332 331 331 331 331 331 329 328 326 325 324 323 322 322 321 320 320 319 318 318 318 319 318 318 316 316 316 314 310 307 306 302 299 300 301 301
301 299 301 302 303 301 303 302 302 302 302 301 303 303 300 300 297 301 300 303 305 306 306 306 307 308 308 307 306 305 305 305 306 307 308 308 309 312 313 311 309 310 315 320 321 324 325 328 330 330 330 330 331 332 331 330 329 329 328 327 327 327 328 328 328 328 329 328 327 326 323 323 323 321 321 320 319 319 319 318 317 317 318 317 317 316 315 314 312 307 304 301 299 300 300 300 300
299 299 302 303 303 302 302 302 302 303 302 303 302 301 301 301 300 301 300 303 304 305 306 306 306 306 306 306 305 305 305 306 306 307 309 307 309 312 314 313 312 310 310 318 320 321 324 327 328 329 330 330 331 332 331 330 329 328 327 327 327 325 327 327 327 327 326 326 327 326 323 323 321 321 320 320 319 318 317 318 317 317 317 317 317 314 313 312 309 303 300 299 300 300 299 298 298
300 300 300 301 301 303 302 301 301 301 303 302 300 300 301 302 303 300 302 303 305 305 305 305 305 304 304 305 304 303 303 305 306 306 307 308 310 310 311 313 313 311 311 312 319 320 321 326 327 328 329 330 330 331 330 329 328 328 328 327 327 326 327 327 327 326 326 326 325 326 324 323 322 320 319 318 319 316 316 317 317 316 317 316 315 314 311 309 303 299 298 299 299 298 298 297 297
301 300 300 299 300 300 301 300 301 301 300 300 298 299 300 301 300 295 302 303 304 303 303 303 303 303 302 302 303 303 303 303 304 305 306 310 310 310 310 312 311 312 312 311 313 319 320 323 325 326 328 327 329 330 329 329 328 327 327 327 327 326 327 326 325 325 325 325 325 326 324 323 322 320 319 318 317 315 316 316 316 316 316 315 314 312 309 305 300 298 299 297 297 297 296 296 296
301 300 299 299 299 300 300 300 300 300 299 301 300 298 299 300 300 297 301 304 304 302 303 303 303 302 303 303 303 303 304 304 303 305 306 307 307 306 307 310 311 311 311 312 312 313 319 320 323 325 326 326 326 328 327 328 327 327 327 327 327 326 326 325 324 324 322 323 323 325 324 323 321 321 319 318 316 315 315 315 315 315 315 312 312 308 306 302 299 299 298 297 297 297 296 295 297
299 298 294 296 298 297 299 298 300 300 299 300 300 297 295 296 295 300 302 303 302 302 302 302 302 302 302 302 302 302 302 302 303 304 305 305 305 306 307 310 311 311 312 312 313 312 316 319 320 323 324 325 325 325 326 327 326 326 325 326 326 327 326 325 324 324 323 324 323 323 324 323 321 320 318 317 315 315 314 314 314 313 313 310 309 305 303 300 298 298 299 298 297 296 296 295 297
300 298 295 294 295 294 299 301 301 299 299 299 298 286 290 295 298 300 302 302 302 301 301 301 301 302 302 302 302 302 302 302 302 305 304 306 307 307 307 307 307 307 309 312 312 313 314 319 321 322 323 323 323 324 324 323 324 324 324 324 324 325 325 324 324 324 323 323 322 322 323 323 322 320 318 316 315 314 313 314 313 311 309 307 306 303 301 298 297 297 297 296 298 296 295 295 293
294 297 296 291 290 290 299 300 298 297 298 299 297 288 290 295 299 302 302 302 300 299 299 299 301 302 302 302 301 301 302 302 303 304 310 307 305 304 305 306 307 307 305 306 312 312 312 315 320 319 319 320 321 322 321 322 321 323 322 323 324 324 324 323 323 324 323 323 322 321 322 322 321 320 317 316 314 313 312 312 311 310 308 306 304 301 299 298 298 297 297 296 295 294 294 295 294
296 291 288 292 289 292 298 302 298 296 296 298 295 288 290 295 298 301 302 301 300 298 298 299 301 301 302 302 301 300 301 303 307 306 306 306 306 305 305 305 305 305 306 306 307 314 312 314 316 316 317 318 319 321 320 321 322 321 321 320 321 320 321 322 321 322 323 321 321 320 320 321 320 320 316 315 313 311 311 311 310 309 307 304 302 300 299 297 297 297 296 295 294 293 294 293 293
294 291 289 290 292 293 295 300 299 299 297 296 295 290 293 294 298 299 301 301 300 299 300 300 301 302 302 301 301 300 302 301 304 306 306 306 306 306 305 305 305 305 305 305 305 307 312 312 315 315 316 317 318 320 319 318 319 320 320 319 320 319 320 319 319 319 321 321 319 318 319 320 319 319 316 314 313 310 309 309 309 308 306 303 301 300 298 296 296 297 294 294 293 292 293 291 292
290 293 290 293 292 293 291 299 300 300 296 292 295 292 292 295 297 299 300 300 299 298 299 300 301 300 300 301 299 300 301 303 303 304 305 305 305 305 305 305 304 303 304 304 304 305 306 310 313 313 314 316 316 317 318 317 318 318 318 317 317 318 318 317 318 318 319 318 317 315 317 318 317 318 316 313 311 310 308 308 307 307 304 302 300 299 298 296 295 295 293 293 293 293 292 292 292
290 292 291 293 294 294 294 293 298 300 298 295 293 293 293 295 297 298 300 301 300 299 299 300 299 299 300 299 300 301 302 302 302 303 303 303 303 303 303 303 302 302 302 303 304 305 306 307 310 311 312 313 314 315 316 316 317 317 317 316 316 317 316 318 317 316 316 317 316 314 316 317 315 316 315 312 310 308 306 306 306 305 303 301 300 298 297 295 295 294 293 293 293 294 293 292 293
293 294 293 292 291 292 293 297 300 299 296 295 295 294 295 295 295 298 299 300 299 299 299 299 300 300 300 300 301 302 302 301 303 302 302 301 301 301 301 301 301 301 301 302 302 303 304 305 307 310 309 309 311 313 314 313 313 313 312 313 313 314 315 314 316 315 314 314 314 314 314 314 313 314 313 311 309 308 305 304 304 304 302 301 299 297 296 294 295 294 292 293 293 293 294 293 293
296 295 294 293 292 293 296 297 299 298 296 294 294 294 294 295 296 297 299 299 298 298 297 298 299 300 300 300 301 302 302 301 302 301 301 300 300 300 299 299 299 299 300 300 300 301 302 303 304 306 308 307 308 308 310 311 310 311 311 311 310 311 311 313 313 313 314 313 313 312 311 312 311 311 310 309 309 306 305 302 302 301 301 300 299 298 297 296 295 295 294 293 292 292 292 292 293
295 294 292 292 293 291 295 296 298 299 294 291 293 293 293 294 296 298 299 298 297 297 298 298 299 299 300 300 300 301 300 301 300 299 300 299 298 298 298 298 297 297 297 298 299 300 300 301 302 303 306 306 306 307 308 309 310 309 308 309 309 310 310 309 310 311 312 313 311 310 309 308 309 310 309 309 308 306 304 301 300 300 299 299 299 297 296 295 294 294 294 291 292 292 291 292 293
295 292 291 290 291 294 296 297 298 295 294 290 292 291 292 294 296 298 298 298 299 299 299 299 300 299 299 300 300 299 298 298 298 298 298 297 296 296 296 296 296 296 297 297 298 299 299 300 301 302 304 305 305 305 305 307 308 309 309 308 309 309 310 310 309 309 310 311 309 309 308 308 308 308 308 308 308 307 304 301 300 299 299 298 297 296 296 294 295 294 293 293 291 291 290 293 293
292 291 288 287 292 290 288 294 296 296 293 291 292 291 292 295 297 297 299 299 299 302 302 301 301 299 298 298 298 297 297 296 296 295 295 295 295 294 294 294 295 295 295 296 296 297 299 299 300 301 302 303 303 304 303 304 306 307 307 306 307 305 303 305 307 306 306 308 306 306 305 305 305 304 305 305 306 306 305 303 300 299 299 297 297 296 295 295 294 294 294 292 292 290 290 292 293
293 293 291 290 291 292 292 292 294 295 295 295 292 290 290 294 294 295 297 299 299 299 300 300 300 300 299 299 298 297 296 295 294 294 294 294 294 293 293 293 293 293 294 294 295 296 297 297 299 300 301 301 302 302 303 303 304 304 305 304 303 303 302 302 301 302 303 303 304 303 305 305 305 303 304 304 304 305 304 303 300 298 298 297 297 296 295 295 294 295 294 293 292 292 290 290 292
291 294 294 294 294 293 293 293 292 288 287 292 291 282 284 291 293 294 296 296 296 298 297 297 298 298 297 297 296 296 296 295 294 293 293 293 293 293 292 292 292 293 293 294 295 295 295 296 297 299 299 300 300 301 302 302 302 301 300 300 299 299 299 299 298 298 300 301 302 302 303 303 303 302 302 303 303 302 303 303 301 299 297 297 296 296 295 294 294 294 294 293 292 291 291 290 290
288 290 297 298 295 294 292 291 289 282 280 290 293 282 281 289 291 294 296 297 296 296 296 296 296 296 296 295 295 294 294 294 293 293 292 292 292 291 291 291 292 292 293 294 294 294 294 294 295 296 297 298 299 300 301 300 300 300 300 299 299 298 298 299 300 301 301 301 303 302 301 302 302 302 301 300 301 301 301 301 301 300 298 297 296 295 294 294 295 294 294 293 292 292 289 289 290
287 294 295 295 294 292 291 291 289 286 290 292 292 289 282 282 289 295 296 295 293 294 294 294 294 295 294 294 293 293 293 293 292 292 291 291 291 291 290 291 291 292 292 293 293 294 293 293 293 294 295 296 297 298 299 300 299 298 298 298 298 298 298 298 299 299 299 299 299 300 300 300 301 301 300 300 299 299 300 300 300 300 298 297 296 295 295 294 294 295 294 294 292 292 291 290 289
291 293 294 292 293 292 291 289 286 286 284 282 286 290 282 281 289 295 295 291 291 291 292 292 293 294 294 293 293 292 292 292 291 290 290 290 291 290 291 290 291 291 292 292 293 293 293 293 292 293 293 294 295 296 297 298 298 298 298 298 297 299 299 299 298 299 297 297 298 298 299 299 298 299 299 299 298 299 298 298 297 298 298 297 296 296 294 294 293 293 293 293 292 292 291 290 290
295 294 295 295 293 292 291 285 284 284 282 280 285 289 281 282 290 292 293 290 288 290 292 292 293 293 293 292 292 292 292 292 291 291 290 290 290 291 290 290 289 290 291 292 292 293 292 292 292 291 291 292 293 294 295 296 296 297 296 296 296 296 298 298 297 297 297 297 297 297 297 297 296 297 297 297 297 298 297 296 297 296 297 296 295 294 293 293 293 293 294 293 293 292 291 291 291
294 295 293 291 290 288 287 286 285 282 278 281 287 289 287 280 288 289 289 292 291 291 291 292 292 292 292 292 292 291 291 291 291 291 290 290 291 291 291 290 290 290 290 290 291 291 291 292 291 291 291 291 292 292 292 293 293 294 294 294 294 294 295 295 295 296 296 296 296 295 296 296 295 295 296 295 296 296 296 296 295 296 296 295 295 294 293 293 293 293 294 293 292 292 291 291 290
294 288 286 286 286 285 285 283 283 278 278 284 287 290 290 278 282 290 291 292 293 293 291 291 291 291 291 291 291 291 290 291 291 290 290 289 289 289 289 289 289 288 289 289 289 290 290 290 290 290 290 291 291 291 291 291 291 291 291 292 293 293 293 294 294 293 294 294 294 294 295 294 294 295 295 294 294 295 295 295 294 294 295 294 295 295 294 293 293 292 292 293 292 292 292 291 290
290 287 285 282 280 282 278 280 274 278 278 282 284 286 283 283 288 292 294 295 293 293 294 292 291 290 290 290 290 290 289 288 289 289 289 289 288 288 287 287 287 288 288 288 288 289 289 289 289 289 289 289 290 290 290 289 290 290 290 291 291 292 292 292 292 292 293 293 293 293 293 293 293 294 293 293 293 293 294 294 294 294 294 295 294 294 294 293 292 292 292 292 292 291 291 291 290
287 284 282 281 276 275 272 276 279 279 283 283 283 288 281 287 290 294 294 293 293 294 294 293 291 290 289 289 289 289 288 287 287 287 287 287 287 287 287 287 288 288 287 287 288 288 289 289 288 287 287 288 288 289 290 290 289 289 289 289 290 290 290 291 291 291 292 292 293 292 293 293 293 293 294 293 294 293 293 294 294 294 294 293 293 294 293 292 292 291 291 290 290 291 291 291 290
287 289 288 282 281 278 273 276 273 275 278 282 286 282 279 279 285 291 293 292 292 292 292 291 290 290 289 288 288 287 286 285 286 286 285 286 286 286 286 287 287 287 287 287 287 287 288 288 288 287 287 288 287 288 288 289 289 289 288 288 289 289 290 290 290 291 291 290 291 292 292 292 292 293 293 294 294 293 293 293 293 293 293 293 293 292 294 293 292 292 291 290 290 290 290 290 289
290 291 289 283 282 287 281 282 281 279 281 280 281 280 283 286 292 292 293 292 291 291 290 289 289 289 288 287 287 286 286 286 286 285 285 285 285 285 286 286 286 287 287 287 286 287 287 287 286 286 286 287 287 287 288 288 288 287 287 287 287 288 288 288 288 289 289 290 290 290 291 291 292 291 293 293 293 293 293 292 292 292 292 292 292 292 292 292 291 290 290 289 289 290 289 288 288
287 288 283 286 291 290 283 282 284 283 281 278 284 283 287 291 292 293 291 290 289 289 289 288 288 288 287 286 286 285 285 285 284 285 284 284 283 284 285 284 285 285 286 286 287 287 286 286 285 285 285 285 286 286 287 287 288 287 287 286 287 286 287 286 287 286 287 289 289 289 289 290 290 291 292 292 292 292 293 292 291 291 292 292 291 291 291 289 289 289 289 288 288 287 287 287 287
287 282 286 291 293 292 285 278 281 279 276 278 284 280 282 281 279 289 289 287 288 287 287 287 287 286 285 285 284 284 284 284 284 284 284 283 284 284 284 285 285 285 285 286 286 287 286 285 284 283 283 284 285 285 285 286 286 287 286 286 286 286 286 286 287 286 286 286 286 287 287 287 288 290 291 291 291 290 291 291 291 290 289 289 289 289 289 289 288 289 288 288 288 287 287 287 287
290 287 293 285 282 281 284 281 274 276 275 277 280 282 282 283 284 288 287 287 286 286 286 286 285 284 284 284 284 284 284 285 285 285 285 285 284 284 284 285 285 285 286 286 286 286 285 285 284 284 283 284 284 285 284 286 285 287 287 286 285 286 286 286 286 286 285 285 285 285 285 286 287 287 288 288 288 288 288 288 288 288 289 288 287 288 288 288 287 288 287 288 286 286 286 286 286
293 292 287 292 286 284 281 283 282 282 276 277 277 281 278 287 287 287 287 287 287 286 285 285 285 285 285 284 285 285 285 286 285 285 286 287 287 285 284 284 284 284 285 286 286 285 284 284 283 283 283 283 283 284 284 285 286 286 286 285 284 285 285 285 285 285 285 285 285 285 285 285 286 286 286 286 286 286 287 286 287 287 287 287 287 287 288 288 288 288 288 288 287 286 286 286 286
283 284 283 286 285 287 286 284 283 279 277 277 276 274 280 285 288 287 286 287 287 286 284 284 284 284 285 284 285 286 286 286 286 285 286 287 286 286 285 285 286 285 285 285 285 285 284 284 284 285 284 283 283 283 283 283 284 284 282 282 283 283 284 284 284 284 284 284 284 285 285 285 286 286 286 286 285 286 286 286 286 287 286 287 286 287 287 286 287 287 287 286 286 286 286 286 286
289 286 283 286 282 281 279 278 286 282 280 277 278 276 283 287 289 287 287 286 286 286 284 284 284 284 286 286 286 286 285 285 284 284 285 287 285 285 284 284 284 284 284 283 283 283 282 281 282 283 283 283 282 283 283 283 283 283 281 282 282 282 283 283 282 283 283 283 284 284 285 285 285 286 286 286 286 285 285 286 286 286 287 288 288 287 286 286 287 286 286 287 287 286 286 285 285
Wind_Speed
7 7 5 3 4 4 4 2 2 1 1 4 4 3 1 1 1 0 6 5 3 2 2 2 1 2 2 2 3 4 3 2 2 3 1 1 1 3 4 4 2 8 7 9 9 10 9 12 15 14 14 14 14 14 13 14 13 12 12 12 11 11 11 12 11 10 10 9 9 8 8 8 7 7 7 7 6 6 5 3 1 1 1 2 3 4 5 9 8 9 11 11 9 8 9 9 9
7 4 4 3 3 2 1 2 0 3 3 3 2 4 1 0 0 5 4 4 2 2 1 1 2 2 3 5 3 4 5 7 1 1 3 3 4 2 4 5 4 9 6 9 10 10 8 9 14 14 15 16 15 14 14 13 13 13 13 12 12 12 12 11 11 10 10 9 9 9 9 9 8 8 7 6 6 5 5 4 3 2 2 2 5 6 7 7 9 9 9 10 8 7 7 8 8
6 7 4 3 3 2 3 1 2 4 4 2 4 3 2 4 5 3 4 4 3 1 1 1 0 1 3 4 3 3 1 2 1 2 3 5 6 3 4 4 3 7 7 9 10 10 8 9 13 14 16 16 16 15 14 13 13 12 13 12 12 12 12 11 11 11 10 10 9 10 10 10 9 9 8 8 7 6 4 4 3 3 3 4 5 7 7 7 9 9 8 10 6 5 6 7 7
4 5 3 3 2 2 2 1 2 3 4 5 3 1 3 0 4 3 2 4 3 1 0 1 1 2 1 3 1 4 2 0 4 1 3 3 0 6 6 4 5 5 4 7 10 10 9 11 13 14 14 16 17 14 13 13 13 13 12 13 12 11 12 12 12 11 11 11 10 10 10 9 9 9 9 9 8 6 5 3 3 3 3 5 7 6 6 7 9 9 8 9 4 4 5 6 6
3 4 3 3 1 1 1 2 3 2 3 1 2 0 5 3 3 4 3 1 5 1 0 1 1 2 1 2 2 1 1 1 5 0 2 1 2 6 6 4 4 5 5 6 10 9 9 17 14 14 15 15 17 15 14 14 13 14 13 13 12 12 11 12 12 11 12 11 11 10 10 10 10 10 10 9 8 7 5 5 5 5 4 6 6 6 7 7 8 7 6 8 3 3 4 5 6
5 4 3 1 0 0 0 2 3 5 5 3 3 4 4 4 3 4 3 2 6 1 1 1 2 2 1 2 2 2 2 1 2 1 1 2 3 6 6 4 4 4 5 4 8 8 8 18 16 15 16 16 18 16 13 14 14 14 13 14 13 13 11 12 12 12 12 12 11 11 9 11 11 10 10 10 9 8 7 6 5 5 5 4 4 5 5 5 5 5 5 7 4 2 4 4 5
3 3 1 1 2 1 1 3 5 4 2 1 1 3 4 3 4 4 3 2 2 3 1 1 3 3 2 2 2 3 1 3 0 1 2 5 3 4 6 5 4 4 6 4 5 8 10 18 16 14 16 16 17 16 14 15 15 15 14 14 13 13 12 12 12 12 12 12 12 11 11 12 12 12 11 10 9 9 8 5 5 3 3 3 1 2 3 4 4 3 2 3 2 2 4 4 5
2 0 0 1 1 1 2 3 5 2 1 3 1 1 2 4 3 2 3 2 1 1 2 1 2 0 6 3 2 1 3 2 6 6 7 6 4 6 6 5 5 4 7 4 4 5 14 17 17 16 15 16 16 16 15 16 16 15 15 14 14 14 13 13 12 12 12 12 10 11 11 12 12 13 11 10 9 9 8 6 5 4 3 3 0 1 1 2 2 2 2 2 2 1 4 4 4
2 1 0 0 2 2 2 4 5 3 2 1 1 0 1 1 0 0 3 2 4 0 3 3 3 0 0 2 3 2 2 4 6 6 7 6 5 5 4 4 5 5 7 6 4 5 10 16 18 17 14 15 15 15 16 17 17 17 16 16 14 14 14 13 12 12 10 11 11 11 12 12 12 12 11 11 8 9 8 7 5 4 4 4 4 3 1 4 3 3 2 1 1 3 4 4 4
2 1 1 1 2 4 3 4 3 2 0 1 1 2 3 5 4 1 2 4 2 1 2 4 0 3 3 4 5 3 2 4 6 4 5 5 5 4 4 3 4 4 6 6 5 6 6 13 17 17 15 13 13 14 15 15 16 16 15 16 15 14 13 13 13 12 11 11 11 12 12 13 12 10 10 11 10 9 10 9 7 6 5 5 5 4 5 5 4 4 3 3 4 4 4 4 4
2 2 1 1 2 3 3 4 7 6 4 3 2 8 6 3 1 3 3 3 4 1 3 5 2 4 4 3 4 1 4 5 5 6 4 4 4 4 4 3 2 4 5 5 5 7 7 8 14 15 14 13 12 12 14 14 15 15 16 15 16 14 14 13 13 12 11 13 12 13 14 13 12 11 11 11 11 10 9 8 9 8 6 6 6 6 5 4 5 3 2 4 4 5 4 5 5
2 0 1 1 4 4 4 4 5 4 5 5 2 5 2 3 1 3 1 2 4 2 4 8 0 2 3 4 3 1 5 3 4 6 5 4 3 3 3 3 1 2 4 4 5 7 7 8 8 11 14 12 11 11 12 13 13 14 14 14 14 14 14 14 13 12 11 12 13 14 14 14 12 11 11 11 11 11 7 5 2 4 6 6 5 5 4 5 3 3 3 5 5 5 5 5 5
1 3 3 3 3 3 5 5 2 5 5 3 4 2 1 2 2 1 3 4 4 5 3 2 1 1 2 2 1 5 4 4 4 5 4 3 4 3 0 4 3 3 3 5 4 5 9 7 7 7 9 11 10 10 10 12 12 12 13 13 13 13 13 13 12 12 11 12 14 14 13 11 10 10 10 9 8 8 8 7 5 5 6 6 6 5 5 5 5 4 5 6 5 5 5 6 5
2 3 3 2 4 5 4 3 5 2 3 2 3 3 1 0 1 2 2 4 5 3 1 2 2 3 5 3 7 2 2 2 4 3 1 2 5 4 2 2 4 3 3 4 4 4 5 9 7 7 8 8 7 8 9 11 11 11 12 12 12 12 12 12 12 12 12 13 13 13 11 9 9 11 9 9 9 8 8 6 5 6 6 7 7 7 6 6 4 5 7 6 6 6 6 6 6
1 3 1 2 3 3 4 4 2 3 5 2 2 2 1 2 1 1 2 4 5 4 1 3 2 2 2 1 1 1 3 3 3 3 4 3 2 3 2 1 3 2 3 4 4 4 5 6 9 8 8 8 8 7 6 8 11 11 11 11 11 11 11 11 11 12 12 12 12 10 8 8 9 9 10 9 8 8 8 8 5 7 8 8 7 8 7 7 6 7 8 8 8 7 7 6 6
1 3 1 1 3 3 4 2 2 0 3 4 2 3 0 4 3 1 2 1 3 5 2 3 4 3 3 5 4 3 4 4 4 4 4 4 1 2 2 1 2 3 3 4 5 5 5 5 6 8 9 9 8 7 8 7 9 11 10 11 11 11 11 11 11 10 11 9 9 8 8 7 8 8 11 8 9 10 9 7 7 4 7 8 9 8 8 7 8 8 8 9 8 8 8 7 6
1 0 1 3 5 4 2 3 0 3 3 2 4 3 1 3 2 1 1 1 3 8 7 6 5 4 8 9 2 6 6 5 6 5 4 4 3 3 3 3 3 3 3 4 5 5 5 6 6 7 8 9 9 8 8 9 9 12 9 10 11 11 11 11 10 9 8 7 7 8 8 6 5 5 7 5 8 6 9 9 8 5 7 8 9 8 9 9 9 9 9 10 10 9 9 8 6
1 1 2 4 5 6 3 4 3 3 4 4 3 3 6 3 1 1 2 3 5 9 10 10 6 9 8 8 6 5 7 8 6 7 5 4 4 4 5 4 4 6 5 5 5 5 6 6 7 6 8 10 9 8 7 7 7 11 9 7 7 8 9 9 8 6 6 4 7 7 5 6 6 5 5 6 5 6 7 10 8 7 8 6 7 9 11 10 10 10 11 11 11 10 9 4 4
2 2 3 5 3 4 6 6 7 4 4 7 6 5 4 5 5 0 3 3 4 7 9 8 9 7 9 12 7 9 9 7 8 7 6 6 6 6 7 6 6 5 6 6 7 8 6 6 6 8 7 10 11 9 7 7 8 9 9 8 7 8 8 7 6 7 6 6 6 6 6 6 6 7 6 6 5 8 8 9 9 9 8 7 7 9 9 11 11 11 11 11 11 11 6 5 4
4 3 4 6 4 6 7 5 6 2 4 6 6 4 5 5 5 2 4 6 5 9 10 7 7 8 8 5 5 7 7 8 9 7 7 7 7 7 6 6 7 8 8 8 8 7 6 7 8 9 8 9 11 9 7 7 6 8 8 8 8 7 7 7 7 7 7 6 7 7 6 6 6 6 9 12 10 7 7 9 10 9 9 7 10 7 8 9 11 11 11 11 8 5 4 6 6
3 4 4 4 4 5 5 9 9 7 4 4 4 5 7 6 5 3 4 5 6 10 9 10 12 9 7 8 9 2 5 8 7 7 7 7 7 6 6 7 8 9 8 7 7 9 11 10 9 9 9 8 9 9 9 8 8 8 8 9 9 8 8 8 7 7 7 7 8 7 7 5 5 6 5 6 6 7 6 5 6 6 4 4 8 4 5 4 5 5 4 6 4 4 4 5 6
2 5 5 6 5 6 7 8 8 3 3 2 4 6 5 5 5 5 4 8 10 8 7 8 12 16 11 10 7 7 8 6 6 8 8 9 8 8 6 5 5 6 7 7 9 9 11 11 10 10 10 9 10 9 9 9 10 7 9 9 9 8 8 8 8 7 7 8 7 8 7 7 6 6 6 7 6 7 7 6 6 6 5 5 5 6 5 5 5 5 4 4 4 5 4 4 4
6 5 8 8 8 9 6 5 0 1 3 4 6 4 5 6 8 7 6 10 11 9 10 12 14 14 14 10 8 9 10 7 6 7 7 8 8 8 7 6 7 6 7 8 8 8 10 10 10 9 10 9 10 9 7 7 8 7 7 8 8 8 8 9 9 9 9 7 7 7 8 7 7 7 7 7 6 6 7 7 7 6 6 6 6 7 6 6 6 6 6 5 5 4 3 3 2
6 7 2 7 9 13 12 12 5 1 3 7 6 5 7 6 12 6 8 9 12 11 10 12 14 12 11 11 9 10 9 9 8 8 8 8 8 9 8 7 6 5 6 8 8 8 9 12 12 10 10 9 8 8 8 8 6 7 7 7 8 8 8 8 8 8 8 9 8 7 7 7 7 7 7 8 7 6 7 7 7 6 6 6 6 6 7 7 7 7 6 5 4 4 4 3 3
7 7 4 8 7 7 6 5 5 7 9 7 5 7 12 8 11 9 15 12 14 13 12 14 15 13 11 11 11 9 9 9 9 8 6 6 6 6 6 7 6 5 5 7 8 7 8 9 10 11 9 11 9 9 9 8 7 7 7 7 7 7 7 7 7 7 7 7 7 8 7 8 7 7 7 7 7 6 6 8 8 7 7 7 8 6 7 7 7 7 7 6 5 5 4 4 4
5 8 4 5 5 7 7 10 9 7 7 4 4 9 9 10 8 15 18 16 16 14 14 14 13 11 11 12 10 7 7 7 8 7 9 6 5 6 6 7 7 7 9 7 7 8 7 9 11 12 11 11 10 10 10 9 9 9 9 8 7 7 6 6 6 7 7 7 7 8 8 7 7 7 7 7 8 7 6 7 8 8 8 7 8 8 6 8 7 7 6 5 6 5 5 4 4
6 5 6 7 7 9 8 10 14 10 10 8 8 8 10 6 1 10 6 10 8 6 8 7 7 8 8 7 7 7 9 8 8 8 5 3 5 6 7 5 6 8 7 8 7 8 8 9 10 11 11 9 9 10 9 10 9 9 8 8 7 7 7 7 7 7 7 7 7 8 7 8 7 7 7 7 7 7 6 7 7 7 7 7 8 8 6 7 7 7 7 7 7 6 6 5 5
3 6 7 10 10 11 14 13 16 10 8 10 9 10 9 8 3 14 15 12 8 8 9 10 8 9 10 10 9 7 7 6 6 6 7 4 5 5 5 6 7 7 6 7 7 5 7 9 10 11 11 11 11 10 9 9 9 9 8 8 9 7 7 7 7 7 7 7 6 8 7 7 7 7 7 7 7 7 7 7 7 8 8 7 8 7 7 7 7 6 6 6 5 5 6 6 5
3 4 7 11 12 12 14 13 14 9 8 5 4 0 3 5 6 16 16 13 11 9 11 10 10 9 8 8 7 6 6 6 5 4 5 5 5 5 5 6 8 6 6 6 7 5 6 7 7 8 10 9 10 10 9 8 8 7 7 7 8 8 8 7 7 7 7 7 7 8 8 8 6 7 7 8 7 7 7 7 7 7 7 7 7 7 7 6 6 7 7 5 6 5 6 5 4
3 4 6 11 10 8 12 11 13 14 3 8 7 3 5 9 14 14 11 11 11 11 11 8 7 8 9 8 7 7 7 5 4 3 4 4 4 2 2 3 1 2 2 4 5 5 5 4 4 5 7 8 9 8 7 6 6 6 6 6 6 6 6 7 7 6 7 7 7 8 8 8 8 6 7 7 7 7 7 7 7 7 7 7 7 7 8 7 7 7 7 7 7 7 7 6 6
5 6 4 5 7 5 7 7 3 2 3 8 4 5 4 6 10 11 6 2 4 8 7 8 10 12 12 10 6 6 6 5 5 6 2 7 7 6 6 8 9 8 5 3 2 5 5 4 4 3 5 5 7 7 6 6 5 5 6 5 6 5 6 6 6 6 6 6 7 7 8 8 8 7 7 8 8 8 8 7 7 7 7 7 7 7 8 7 8 8 8 8 6 7 6 6 5
6 5 3 3 6 4 8 8 6 3 1 3 5 4 8 9 7 5 7 6 6 5 6 9 12 12 12 8 6 5 4 3 6 13 14 14 13 11 12 12 11 11 11 8 4 2 3 4 4 3 4 5 5 6 5 5 5 4 5 4 4 4 5 5 6 6 5 6 6 6 7 7 7 7 7 8 8 7 8 8 7 7 7 7 7 7 7 8 7 7 6 7 8 6 7 6 5
5 7 6 8 5 7 6 4 5 8 2 3 9 7 3 4 4 3 6 10 9 11 13 15 17 16 13 9 6 5 4 5 12 13 14 12 12 11 11 11 11 11 9 9 10 4 1 3 5 4 4 5 4 5 4 4 4 4 4 4 4 4 4 3 3 3 4 5 6 6 6 7 6 6 6 7 8 7 7 7 7 8 7 8 8 7 7 7 8 7 7 7 7 7 7 7 5
5 5 8 5 6 4 4 4 1 2 6 3 8 8 6 7 7 11 11 10 8 9 14 15 14 10 9 8 5 5 5 11 13 12 14 13 11 13 12 11 11 13 11 13 10 10 4 2 4 4 3 2 1 3 4 4 3 3 3 3 2 3 4 3 3 3 4 4 4 5 6 6 6 6 7 6 7 7 6 7 7 8 8 8 8 7 7 7 7 8 8 6 8 7 7 8 7
4 4 7 8 6 5 9 7 3 9 2 7 4 9 8 6 4 5 8 9 11 11 13 13 10 7 9 5 4 8 12 13 11 12 13 14 13 12 11 11 11 11 10 12 12 12 10 7 6 4 4 3 1 2 3 3 3 3 3 2 2 1 2 1 2 2 2 3 4 4 6 6 6 6 6 6 7 7 6 6 7 7 8 8 8 8 7 7 7 7 8 7 6 7 8 8 8
10 8 8 8 9 7 8 7 9 8 11 9 7 10 9 5 5 9 12 12 12 13 10 8 11 11 7 4 7 9 11 11 9 12 12 11 11 10 10 10 9 9 10 11 12 12 12 10 6 5 4 3 2 2 4 3 3 3 3 2 2 1 1 2 0 1 1 2 3 4 5 5 5 6 5 5 6 7 6 6 7 6 8 8 8 9 9 8 10 9 9 9 8 5 6 7 7
12 9 8 9 9 8 7 10 8 5 8 7 7 6 8 9 9 12 14 14 11 11 8 9 11 8 6 7 8 12 12 10 8 11 12 11 11 10 9 9 10 9 11 11 11 12 12 11 10 6 4 4 4 2 2 2 1 1 1 3 2 3 3 1 1 1 0 1 2 3 4 5 5 5 4 5 6 6 6 5 5 6 7 8 8 10 9 9 8 8 7 6 9 7 5 6 7
8 7 6 9 5 11 6 10 8 6 1 2 5 8 7 8 12 17 18 10 11 9 11 10 6 5 4 8 10 11 9 7 11 12 11 10 10 11 9 9 10 12 12 11 12 11 11 11 11 10 6 5 5 3 3 2 1 1 1 2 1 1 2 3 3 1 2 1 2 3 4 4 4 5 6 6 6 6 6 6 6 7 7 7 7 6 6 6 6 6 6 5 4 7 6 8 9
5 6 5 6 7 9 10 11 6 1 2 5 6 9 8 10 17 18 16 12 9 9 5 3 8 6 7 8 10 10 11 10 12 10 9 9 10 10 10 9 10 10 9 10 10 10 11 10 9 8 8 7 6 5 6 2 2 3 3 3 2 1 2 3 2 1 2 2 2 4 4 4 5 5 5 6 7 6 7 7 7 7 7 7 7 7 7 8 9 10 9 10 7 4 3 5 10
4 4 5 7 6 5 4 3 6 6 3 7 8 13 8 12 17 14 14 12 7 3 10 11 10 12 12 12 8 10 10 11 11 10 9 9 10 10 10 11 10 9 10 10 10 10 8 9 9 9 9 9 8 7 6 5 5 6 6 6 6 7 3 4 5 5 4 3 2 3 3 3 3 4 4 4 5 5 7 7 7 7 8 8 9 8 8 9 8 8 9 9 9 8 5 8 9
3 5 6 7 6 6 6 4 6 6 7 7 6 6 6 9 11 7 3 2 2 5 12 13 10 10 9 10 13 12 12 9 8 8 9 10 11 12 11 10 8 9 9 9 9 10 8 10 10 9 9 9 8 8 7 6 4 4 5 4 3 3 3 4 2 1 2 1 1 2 1 1 2 4 4 4 4 5 5 5 6 6 7 7 7 8 9 10 10 10 11 10 11 12 10 6 7
6 6 10 9 8 7 4 6 8 3 3 1 4 6 3 4 5 8 4 2 1 7 13 9 10 8 9 11 10 11 10 9 9 9 9 8 9 9 10 10 10 9 11 10 9 10 10 10 10 10 9 8 8 7 7 6 4 3 2 2 1 1 1 1 2 3 3 3 4 2 3 3 3 3 4 4 5 4 5 5 5 5 6 6 7 7 7 7 8 9 11 11 11 9 10 7 8
2 3 1 2 2 2 4 4 4 3 1 2 1 3 8 2 7 6 10 10 3 7 10 8 8 8 8 8 9 9 8 7 7 7 7 9 9 9 10 11 10 11 11 9 9 10 10 10 9 9 9 8 9 8 8 8 7 5 4 4 4 3 3 2 1 1 2 2 4 4 3 3 4 4 3 4 4 5 5 5 5 5 5 6 6 6 7 8 8 10 8 9 10 10 7 10 12
5 0 3 3 3 2 3 2 2 6 4 6 5 6 8 6 3 9 11 6 10 9 9 8 6 8 9 9 8 8 8 6 6 7 7 7 8 9 11 10 11 11 8 9 9 9 10 10 9 9 8 8 8 9 8 8 6 5 5 4 3 3 3 2 2 2 3 4 3 2 2 2 3 3 3 4 4 4 5 5 5 5 5 5 6 7 8 6 6 6 8 9 9 9 10 11 10
2 0 4 2 2 3 3 3 4 4 5 7 4 6 1 4 4 10 7 4 8 9 6 7 6 7 9 9 8 6 7 6 6 7 8 8 9 9 9 10 8 9 10 10 9 9 8 8 9 8 9 8 8 9 8 8 7 6 5 5 5 5 5 5 5 5 3 4 1 1 1 1 3 3 3 3 4 4 4 5 5 5 5 5 6 5 6 6 7 7 8 9 10 9 9 8 8
1 0 0 1 2 2 4 3 3 4 1 6 2 5 4 7 5 7 1 8 6 6 8 5 5 8 8 9 8 6 5 5 6 7 7 8 8 8 8 6 7 8 7 8 8 8 8 7 9 9 8 8 7 8 8 8 8 7 6 5 5 5 6 6 5 5 5 4 1 1 1 1 1 3 3 3 3 3 3 3 4 5 5 6 5 5 5 6 6 6 8 9 10 11 8 9 10
0 0 2 4 3 5 3 3 1 2 3 8 8 10 5 4 5 2 1 2 7 8 5 6 6 7 8 7 7 7 5 5 6 6 6 7 7 8 8 9 9 9 9 9 9 8 8 8 8 10 9 7 7 7 7 7 6 6 5 5 5 6 6 5 6 6 5 5 5 3 1 2 2 2 3 3 3 3 3 3 4 5 5 4 5 5 5 6 7 7 7 8 10 11 10 9 8
2 1 1 4 8 1 0 1 3 0 4 1 6 1 10 4 5 5 2 0 14 14 14 12 9 8 7 6 6 6 6 6 6 6 6 5 6 7 7 9 8 8 9 10 9 8 8 7 8 10 10 9 8 8 7 7 5 4 4 4 6 6 6 5 5 5 4 4 4 4 5 4 2 1 2 3 3 3 4 4 4 4 4 4 5 6 5 5 6 6 6 6 7 9 9 10 9
2 0 1 1 3 1 2 3 1 4 6 1 1 4 5 5 3 6 6 7 2 2 10 12 12 11 9 7 7 6 5 5 5 6 6 6 6 5 5 5 5 8 8 9 9 7 5 6 7 8 9 8 8 6 6 5 6 6 6 6 6 7 7 6 5 6 5 6 6 6 6 5 6 6 3 2 4 4 4 4 4 4 5 5 5 4 5 5 5 6 6 6 7 8 9 10 10
3 3 2 1 2 1 4 4 2 3 1 2 2 1 4 5 7 9 8 5 10 12 11 9 10 10 9 7 6 6 5 4 4 4 5 5 6 6 7 8 9 9 10 10 8 7 6 6 7 7 7 6 6 6 7 7 8 8 7 7 7 7 7 6 6 6 6 6 6 6 5 5 6 5 6 5 4 4 4 5 5 5 5 5 5 5 5 5 5 6 6 6 6 7 7 10 11
7 3 4 3 3 1 4 2 4 4 4 4 0 6 3 2 2 5 12 9 11 10 11 10 11 10 9 7 7 6 4 4 4 4 4 5 6 6 6 7 7 7 9 8 7 8 7 7 9 9 8 8 7 7 6 7 7 8 7 7 7 7 7 7 7 6 6 6 6 6 6 6 6 6 6 6 6 5 3 4 4 4 4 4 5 5 5 5 5 5 6 6 6 6 7 8 9
1 0 3 1 4 0 8 3 5 4 7 8 5 5 2 3 4 2 8 10 9 11 10 10 10 7 6 7 6 5 4 4 5 4 4 5 5 5 5 6 6 6 6 6 6 5 5 6 6 6 6 5 5 5 6 6 6 6 7 8 9 8 7 6 6 6 6 5 6 6 6 6 6 6 6 5 6 5 5 3 3 4 4 4 4 5 5 5 5 6 6 6 7 4 6 7 8
0 3 3 3 0 2 1 3 5 5 4 10 5 4 7 3 6 7 9 11 8 7 9 8 8 7 6 6 5 5 4 4 4 4 4 4 5 5 5 5 5 6 6 6 6 6 6 6 5 5 5 5 6 5 6 7 7 8 9 9 9 10 10 9 8 7 6 6 6 6 6 7 6 6 6 5 6 5 5 4 4 4 4 4 5 5 5 5 5 5 6 6 7 6 6 7 7
5 1 4 1 2 1 2 5 2 5 7 7 6 10 10 4 6 4 6 11 6 7 7 8 8 6 6 5 5 4 3 3 2 2 2 3 4 4 4 4 4 3 3 4 4 5 5 5 5 4 4 6 6 7 6 6 6 7 8 9 9 8 6 5 6 7 7 8 8 7 7 7 7 7 6 6 6 7 6 6 5 5 4 4 4 5 5 5 5 5 5 6 6 5 6 6 6
5 3 1 1 1 3 2 1 2 4 7 5 4 8 9 7 7 4 4 9 9 8 7 7 7 6 5 4 4 2 0 0 1 1 1 1 2 2 2 3 3 3 3 3 3 3 3 3 3 3 5 5 5 5 5 5 5 5 6 7 7 7 7 7 7 8 7 8 8 8 7 7 7 7 8 7 7 7 7 6 5 5 5 5 5 5 5 5 5 5 5 6 5 5 6 6 6
2 1 2 2 1 4 4 4 3 3 9 6 6 7 8 5 4 5 11 8 7 8 6 6 6 5 5 3 3 2 2 1 0 0 0 0 0 1 1 2 4 4 4 4 4 3 4 4 5 5 5 5 6 7 7 7 7 7 7 6 5 5 5 6 7 8 8 8 8 7 7 7 8 7 6 6 7 6 7 7 6 6 5 5 5 5 5 5 5 5 6 7 6 5 6 7 7
1 2 1 1 1 1 1 1 4 4 5 5 7 7 5 3 4 7 7 8 7 8 7 4 3 3 3 3 4 3 2 2 2 1 1 0 1 1 1 2 3 3 4 4 4 4 4 5 5 6 7 7 6 5 5 5 5 6 6 7 7 6 7 6 7 7 8 7 7 7 8 7 7 7 6 7 6 7 7 7 7 7 6 5 5 5 5 4 5 6 6 6 6 6 6 7 6
1 5 3 5 4 4 6 9 3 3 5 8 9 12 4 3 4 5 6 4 7 6 7 5 3 3 4 4 5 5 5 3 3 2 1 1 0 1 2 2 3 2 2 2 3 2 3 4 5 6 7 6 7 8 7 6 5 5 6 6 7 6 7 7 7 6 7 7 7 7 7 8 8 8 8 8 8 6 5 6 6 7 7 7 7 5 5 4 5 6 6 5 6 7 7 7 6
Wind_Direction
288 263 239 265 281 278 322 245 313 196 207 229 252 34 84 154 224 331 39 14 50 97 54 303 309 272 326 340 296 301 311 327 298 320 248 215 171 150 137 131 211 132 144 134 143 156 163 164 167 165 164 171 171 173 178 170 169 174 172 168 169 173 173 172 170 170 168 166 162 163 160 158 156 160 160 158 152 151 143 119 115 148 115 91 104 105 111 113 108 98 88 85 74 71 71 72 70
278 297 287 264 269 346 285 49 232 282 226 266 21 57 315 32 237 51 23 44 60 23 44 310 304 322 259 265 291 322 278 207 235 26 100 95 145 75 124 166 187 153 151 134 142 157 163 168 168 165 166 170 173 175 176 171 173 175 172 172 172 177 177 175 175 174 173 170 172 173 169 167 169 170 165 155 150 152 153 145 164 193 169 127 132 124 118 110 103 92 90 87 78 77 79 79 74
319 316 303 228 257 216 283 279 304 326 330 338 86 40 356 37 50 21 44 62 45 36 325 250 254 235 241 222 273 204 277 315 73 58 90 155 128 197 154 175 207 154 153 134 149 159 161 168 171 167 168 172 173 177 174 173 174 176 176 175 177 185 181 182 181 181 180 182 182 184 178 179 173 167 160 153 148 145 147 156 173 192 165 150 115 119 121 116 101 95 92 82 81 81 84 82 78
289 282 279 309 290 158 274 179 221 276 330 292 98 97 93 113 33 57 47 95 127 167 262 273 266 117 294 253 321 324 228 17 85 24 127 191 97 149 155 168 216 157 154 139 154 161 161 165 168 171 170 174 174 177 174 174 176 179 178 180 182 188 188 188 186 188 189 189 193 188 188 182 171 163 159 146 141 138 143 144 160 131 144 132 121 110 103 94 94 96 90 85 81 77 79 79 77
282 267 240 306 305 284 318 288 311 317 264 341 343 40 52 32 32 46 26 317 121 151 182 308 282 193 261 293 328 271 12 69 65 139 105 26 189 141 147 154 206 156 160 152 153 162 165 161 168 171 172 175 178 179 177 177 180 183 183 184 185 189 192 194 192 193 195 194 195 196 188 180 170 167 162 146 138 130 126 123 121 128 127 123 133 120 105 91 86 91 93 96 89 79 79 74 73
256 267 194 195 326 151 342 312 242 219 246 32 2 0 10 26 356 43 328 309 120 117 68 291 279 345 226 213 198 223 56 2 218 65 75 166 114 136 143 149 204 164 152 182 155 161 163 164 167 171 173 176 181 179 179 179 185 185 186 188 189 190 193 197 195 198 198 200 200 197 187 181 169 169 164 149 146 134 132 137 134 128 135 123 122 112 100 99 101 95 95 98 96 83 78 72 67
319 315 196 241 281 95 259 284 297 321 359 73 46 357 351 342 32 7 333 354 71 107 72 215 38 295 250 263 158 239 133 149 115 118 55 159 144 142 139 173 183 175 154 191 153 167 155 166 169 170 174 177 181 179 179 180 187 186 187 191 192 191 193 197 198 201 203 203 203 199 188 178 172 170 159 153 150 145 133 143 125 128 106 73 36 99 126 119 120 119 100 111 126 76 82 76 66
236 25 15 320 264 102 221 228 255 238 232 93 145 293 339 359 26 29 323 310 158 235 180 253 160 138 269 114 247 243 79 36 123 125 122 129 131 137 160 178 168 189 155 187 173 158 155 166 171 174 175 179 183 178 179 180 186 188 189 192 194 194 195 199 200 204 208 208 204 200 188 179 171 183 158 160 163 162 159 153 163 137 157 128 359 210 239 215 185 133 122 103 94 115 85 76 69
250 177 21 359 259 185 253 256 245 216 263 78 34 301 152 195 95 33 273 316 277 135 185 169 144 232 43 320 273 182 58 102 93 103 115 120 148 145 172 181 173 181 160 180 153 113 159 168 171 174 180 182 183 180 182 182 187 190 190 192 194 196 198 201 203 207 206 208 205 199 191 178 184 179 168 155 157 163 158 152 169 203 211 222 222 218 267 241 200 187 156 166 135 118 90 79 74
271 135 314 292 352 300 258 249 211 84 237 87 55 300 21 24 359 34 333 285 77 281 71 89 183 212 314 306 300 135 219 157 119 110 122 141 132 154 159 200 181 170 156 178 132 137 148 171 171 174 178 185 186 184 185 184 187 190 189 191 193 194 198 200 203 206 203 203 200 193 191 181 187 175 174 169 167 167 169 179 186 202 194 220 222 228 230 231 230 208 178 174 131 111 100 92 84
274 170 181 344 244 248 261 341 10 342 340 18 308 79 58 39 26 321 266 271 253 246 144 127 214 232 241 255 241 355 98 134 160 140 144 133 135 152 153 189 211 165 164 171 147 131 142 168 173 172 179 184 189 191 188 186 188 189 192 193 194 194 196 197 202 204 198 200 194 190 187 189 183 180 172 171 180 182 190 191 207 213 203 220 218 233 229 217 218 204 154 136 134 115 110 105 95
292 247 121 305 299 313 326 8 328 313 325 293 73 65 26 94 301 282 331 313 347 316 281 151 354 8 309 281 284 175 129 134 82 111 112 121 162 159 146 164 161 194 164 164 151 130 151 161 169 175 178 184 192 192 191 191 192 191 193 196 197 196 196 197 199 200 194 191 185 191 192 191 187 187 183 184 187 190 187 149 180 211 217 217 219 210 202 218 205 189 171 138 124 118 116 111 104
245 314 320 303 281 316 327 320 292 336 281 24 116 47 126 97 279 344 318 332 306 284 352 69 60 163 277 276 262 107 136 50 76 92 125 166 143 130 345 141 180 193 175 163 145 157 149 159 171 175 179 184 190 194 191 193 195 196 196 199 200 199 196 197 197 189 193 187 187 191 193 185 187 185 184 190 186 171 158 158 175 205 204 208 206 201 202 198 204 193 149 134 126 125 121 114 105
336 349 360 283 333 305 291 274 280 269 306 114 50 150 85 319 117 332 8 298 295 325 166 344 336 58 275 283 287 152 105 126 102 102 131 73 98 127 197 123 166 204 187 162 168 182 160 159 173 175 177 180 186 190 194 193 195 199 201 200 202 201 196 195 193 190 192 189 192 195 194 183 186 181 178 165 156 155 151 148 155 193 202 204 201 200 194 199 187 142 140 135 136 131 123 112 102
321 337 315 284 288 294 250 233 304 355 274 340 171 150 211 179 197 202 274 290 277 137 216 196 209 82 249 304 309 131 193 137 131 121 94 84 87 122 180 113 149 223 185 179 185 192 190 164 171 174 180 182 186 185 187 194 196 201 200 200 201 201 197 193 191 196 193 191 190 184 176 165 166 162 153 156 153 144 141 124 135 182 200 205 200 201 199 191 186 153 150 146 139 133 125 114 102
311 359 253 286 276 302 297 306 247 200 262 82 215 81 234 283 166 165 246 262 289 316 10 279 133 227 276 287 287 162 139 141 141 132 127 111 143 111 131 209 175 205 218 185 204 203 190 189 168 177 178 183 189 186 188 186 194 197 197 197 199 199 195 193 193 197 190 185 177 164 150 148 149 151 149 148 148 138 135 134 134 152 200 200 198 199 195 186 178 172 155 149 141 135 122 109 103
298 135 296 212 261 233 234 219 125 264 327 26 162 171 31 336 76 325 97 9 304 283 287 251 245 196 243 246 232 151 150 139 147 149 135 145 156 180 165 198 218 192 196 221 204 198 201 190 190 173 180 185 189 189 189 190 188 190 194 196 195 195 194 192 194 192 180 180 175 154 141 141 145 141 148 146 143 140 143 140 141 150 193 201 197 194 189 184 179 182 158 151 143 125 109 101 95
140 191 192 258 243 271 290 318 334 0 333 325 327 345 337 299 224 200 6 268 248 265 267 271 251 250 244 237 228 151 151 150 168 154 177 176 178 180 188 198 181 209 191 204 217 206 193 201 199 183 178 186 188 191 191 190 183 184 187 187 191 194 195 190 188 181 177 170 164 150 156 153 149 148 158 141 148 141 147 145 149 162 192 202 193 186 189 180 182 184 162 154 141 124 117 99 80
184 254 221 243 249 267 334 323 310 343 323 332 312 308 323 313 354 147 280 279 291 296 279 292 293 272 252 238 211 149 160 171 174 187 189 194 189 200 198 188 194 194 196 194 204 206 197 196 195 201 188 185 188 193 193 189 175 182 188 187 189 188 187 187 184 183 176 169 166 167 171 169 162 156 168 153 160 149 152 153 155 166 188 197 177 177 181 181 183 183 167 154 143 146 146 138 132
218 222 250 252 258 272 276 276 291 297 300 287 307 325 349 319 315 330 263 279 280 269 281 295 279 282 285 301 222 189 174 194 187 192 205 214 206 206 204 194 195 198 199 190 194 195 195 194 203 202 200 185 184 189 192 188 187 176 189 190 188 189 189 186 191 187 181 175 169 173 181 176 175 165 172 164 155 154 154 157 161 165 185 179 169 163 172 177 181 182 172 151 143 166 192 151 152
182 194 224 246 269 314 312 317 304 309 347 334 311 323 314 293 278 292 285 292 251 255 249 251 269 275 303 320 325 291 207 203 199 195 212 223 226 218 213 205 193 196 195 180 174 186 194 195 196 203 198 192 185 185 187 191 190 176 188 191 191 190 192 189 194 193 188 184 169 174 181 179 173 173 142 155 147 148 146 158 162 165 156 166 152 136 137 145 143 116 124 126 161 192 224 160 159
307 237 237 253 289 286 286 297 327 17 20 296 286 297 288 305 281 263 238 245 255 253 272 285 291 290 290 299 307 304 296 284 207 199 210 218 221 226 227 236 228 182 178 175 189 186 191 197 195 195 195 194 192 190 189 188 187 180 181 189 190 194 192 196 193 197 196 191 179 174 176 181 176 164 143 155 156 149 151 161 167 162 153 161 155 143 144 144 138 142 149 164 198 211 196 169 176
242 232 249 247 249 254 263 259 31 48 315 290 288 283 316 292 285 274 263 247 257 254 266 270 271 276 281 282 280 284 283 272 246 217 213 221 225 226 223 216 206 214 175 193 185 190 187 192 195 190 197 195 195 192 189 187 193 192 178 181 189 198 193 193 197 197 202 196 187 179 176 181 177 168 153 157 166 159 156 163 167 168 164 161 169 149 161 161 162 161 166 187 214 185 170 129 91
232 255 290 297 308 289 293 294 298 182 252 270 275 306 276 285 283 278 261 255 263 263 262 264 268 270 273 275 270 267 266 264 255 234 224 227 221 219 213 214 221 203 179 191 190 187 182 192 192 189 193 193 194 191 194 194 194 192 193 188 191 193 193 194 191 194 196 198 192 186 177 175 175 174 159 160 171 165 162 163 164 173 172 165 175 160 166 164 176 165 167 190 192 148 134 133 129
277 259 239 255 252 265 273 270 270 281 275 276 269 272 265 264 270 295 273 271 268 267 264 265 266 269 269 266 266 259 253 259 261 250 239 233 224 222 205 208 212 207 207 198 192 186 190 187 188 192 190 193 190 187 197 196 192 193 191 195 196 189 195 189 185 182 188 192 192 187 175 176 177 174 163 164 162 174 166 164 168 178 171 165 169 188 171 166 177 164 167 180 153 142 143 164 162
234 271 324 323 315 315 312 311 295 274 273 241 243 249 264 264 284 271 270 269 263 263 264 264 269 267 263 263 259 255 253 244 248 257 243 227 213 213 220 206 201 204 215 210 182 196 186 180 187 191 190 192 191 189 194 193 192 190 194 195 192 187 196 187 177 181 183 185 189 187 182 179 176 173 160 159 164 180 175 167 167 175 171 164 166 189 179 161 167 159 161 160 153 153 156 188 150
351 332 318 319 300 298 281 270 275 268 262 259 248 253 255 252 239 279 265 261 271 260 261 255 252 259 263 267 265 256 255 249 237 244 259 220 216 206 224 215 204 220 214 219 206 193 187 178 187 189 190 185 186 196 197 198 190 193 191 190 190 191 188 186 179 177 182 184 184 185 182 180 170 167 160 161 164 176 180 172 172 170 169 171 168 178 164 157 158 160 162 163 164 158 170 170 147
6 333 322 292 284 273 272 265 261 261 259 242 232 250 267 272 237 255 271 271 263 274 275 273 262 259 262 264 265 265 263 258 241 226 237 233 221 215 219 204 223 229 220 229 221 193 179 189 188 187 187 185 185 192 192 198 198 195 188 188 193 189 180 186 183 177 180 182 176 179 180 181 168 171 161 164 166 175 180 175 173 168 173 164 164 158 156 154 157 159 157 160 161 153 153 161 152
357 12 303 283 279 277 269 262 261 248 249 202 146 277 290 265 234 244 248 258 269 259 265 265 271 268 262 262 272 273 259 258 251 209 219 216 214 201 216 209 213 225 237 225 221 202 191 192 188 188 187 184 189 189 189 194 195 194 191 193 190 187 183 182 186 183 177 177 174 173 180 180 175 168 168 166 166 174 175 173 172 169 164 157 154 150 148 151 150 151 162 155 155 141 137 165 147
297 249 252 284 284 265 264 257 242 236 248 121 93 262 191 237 248 256 252 248 249 246 249 254 251 259 267 277 284 287 290 294 286 245 221 223 207 190 232 276 258 246 253 240 206 207 207 183 179 179 187 185 190 190 185 185 190 191 190 189 188 188 191 186 189 183 176 175 170 173 177 179 181 170 162 167 165 169 177 176 172 168 159 154 148 148 155 157 155 154 164 151 159 145 151 160 143
261 262 246 268 302 277 288 268 83 177 95 135 123 235 235 274 277 276 287 307 313 301 298 290 281 278 278 283 284 277 279 266 249 265 355 46 47 35 23 10 355 335 323 323 209 210 186 166 160 168 176 188 182 191 182 180 181 180 179 182 185 188 191 189 187 185 179 177 170 171 176 177 181 174 164 164 172 170 174 174 174 171 158 154 152 161 156 160 154 162 160 154 154 145 147 159 151
257 297 239 229 208 259 263 283 147 202 219 212 106 254 249 247 264 333 331 327 303 280 278 270 269 269 273 279 287 276 271 309 20 40 37 37 33 27 26 14 7 4 356 336 334 166 171 153 142 151 153 181 171 183 179 166 172 174 169 178 178 181 187 188 185 187 179 172 169 167 175 175 176 176 168 166 172 176 175 174 176 167 161 155 155 159 157 164 161 160 172 153 153 162 150 166 159
242 225 259 264 256 268 296 261 138 207 94 250 164 231 242 259 270 297 302 288 277 280 275 273 272 276 286 294 289 297 321 24 47 41 39 32 29 28 24 14 7 356 352 357 352 354 145 133 141 144 148 175 174 175 175 168 154 162 164 163 172 165 181 187 183 167 168 169 162 163 173 176 180 181 173 171 173 177 174 172 175 170 160 157 157 165 167 170 159 162 175 173 163 162 159 162 162
257 217 246 230 254 296 267 351 242 142 135 216 225 250 236 258 266 265 259 259 254 254 262 263 266 273 276 283 294 296 39 57 48 39 36 32 25 26 23 13 13 5 3 1 2 355 17 58 121 129 104 126 164 159 164 157 143 126 131 135 150 151 175 168 179 166 180 173 165 162 171 180 185 185 179 172 173 178 175 172 174 168 160 157 158 166 177 170 166 163 171 181 170 159 162 162 162
271 299 299 289 292 296 295 300 306 311 249 273 260 243 256 246 276 295 289 285 281 267 269 276 286 285 283 299 334 53 66 60 53 45 38 33 24 17 17 12 15 12 8 5 4 5 7 19 53 70 67 72 74 80 108 115 113 91 89 94 98 82 101 114 124 143 163 162 172 151 164 174 182 187 184 172 171 176 175 175 174 171 162 160 159 167 174 174 170 172 170 180 177 174 164 169 160
269 276 277 290 293 287 279 279 287 282 280 278 271 277 291 301 295 280 281 269 261 265 265 286 286 281 289 359 68 70 74 71 62 55 46 38 29 19 14 13 16 18 12 8 7 11 12 10 28 67 43 25 48 64 84 92 96 110 116 89 86 106 92 128 132 147 152 152 157 151 153 168 177 186 184 175 171 175 177 180 174 169 170 162 165 169 180 178 179 176 181 175 174 171 162 159 142
256 260 259 261 274 280 287 278 287 289 297 276 289 299 307 304 288 277 269 269 269 270 273 258 265 285 52 85 76 82 74 72 60 58 50 39 29 22 16 16 15 17 19 14 15 16 13 12 17 26 65 35 49 40 43 85 100 91 85 136 162 166 182 183 179 239 181 175 136 130 137 148 159 171 175 167 182 175 181 176 168 176 173 173 177 186 183 185 184 180 172 176 169 165 172 158 154
299 293 292 289 283 281 275 298 296 302 310 313 306 293 289 295 291 277 272 278 274 266 257 258 288 64 94 84 91 82 82 61 51 42 37 35 26 21 19 19 17 21 15 16 19 16 15 16 17 6 17 45 33 58 74 52 50 146 138 177 149 155 160 165 208 211 212 75 76 92 115 127 147 169 179 178 181 180 183 183 177 179 178 186 189 178 180 182 172 174 160 169 200 171 176 167 163
286 293 307 303 283 280 285 271 261 291 3 293 318 304 294 290 276 275 277 273 261 255 266 36 87 71 65 78 75 72 63 58 51 42 36 35 26 22 22 20 23 21 13 20 18 21 20 16 11 6 11 28 22 33 49 52 30 26 59 28 80 89 70 88 99 87 124 153 118 120 130 144 154 173 182 184 186 189 186 183 188 179 184 179 177 187 185 185 184 180 175 174 181 196 161 180 171
253 282 286 264 272 295 310 260 349 346 357 302 292 287 290 278 272 273 270 255 259 268 75 71 70 80 70 62 61 62 56 56 49 38 27 25 29 23 23 23 19 14 17 19 16 20 22 17 11 11 19 21 19 13 36 33 54 52 55 58 47 74 63 27 39 32 35 49 54 73 81 125 140 172 184 191 196 199 197 197 190 184 189 183 183 187 189 194 187 186 184 186 170 171 181 196 197
258 230 239 262 271 262 256 307 348 324 298 280 292 276 268 250 263 261 282 285 243 87 85 81 75 78 83 76 64 55 60 48 47 39 29 22 27 25 21 18 14 23 21 20 17 19 20 18 12 17 26 17 9 13 15 11 45 49 56 34 41 42 31 56 65 9 71 72 62 96 161 130 156 169 184 199 198 208 213 209 201 195 190 192 187 191 193 198 195 194 189 182 184 184 191 182 206
269 253 244 252 269 287 329 337 349 345 303 11 21 326 229 267 337 326 295 306 263 88 97 97 85 72 67 69 74 73 60 49 45 37 31 29 28 27 23 18 21 20 24 18 15 18 21 18 16 20 22 12 3 3 8 7 35 65 79 101 86 111 162 153 186 196 180 155 193 190 179 175 180 188 186 197 209 213 220 220 217 200 199 197 198 202 201 195 199 197 197 191 195 203 186 170 192
283 267 34 335 352 352 321 331 42 310 279 260 92 306 287 200 272 262 260 253 275 91 89 82 76 74 69 72 69 67 67 56 48 41 33 31 29 32 28 23 15 21 19 12 14 17 20 20 20 24 20 9 1 359 9 13 14 22 44 56 72 67 51 350 25 92 134 178 165 172 185 177 185 186 211 196 207 216 222 228 227 220 206 201 200 202 206 206 205 205 196 199 199 196 170 186 193
256 19 336 6 8 346 324 331 227 249 263 269 259 221 255 290 252 256 249 232 103 91 78 74 75 79 74 66 62 64 65 67 54 46 33 29 27 32 34 20 18 18 11 14 17 12 19 19 18 24 24 14 2 359 5 13 18 6 16 29 49 52 59 33 14 33 76 69 68 107 123 169 189 192 211 221 209 209 217 228 229 230 225 211 200 208 211 212 210 213 205 206 202 200 197 195 194
211 265 40 358 9 318 315 277 260 256 311 289 218 203 278 248 246 239 227 142 105 110 114 114 112 103 96 83 70 59 61 58 62 48 39 24 21 24 30 31 14 13 18 20 16 11 10 18 20 20 25 20 7 2 6 10 11 3 17 27 29 20 27 17 9 17 59 92 77 62 103 178 176 209 222 233 235 220 212 220 228 233 232 230 211 214 216 214 211 202 205 207 209 211 209 203 188
107 312 98 282 266 266 242 250 286 306 297 271 240 178 207 291 255 293 115 94 144 144 134 126 119 110 108 102 88 75 51 52 46 54 45 34 19 18 22 27 21 17 17 21 22 17 14 17 25 24 23 20 9 6 8 15 13 12 18 20 33 18 15 8 18 16 15 29 72 145 166 211 216 202 227 242 252 247 228 222 228 232 233 233 228 221 221 223 223 216 208 208 209 214 213 210 208
181 345 339 310 259 236 247 248 273 319 248 254 238 200 184 292 290 257 93 200 165 140 111 121 99 71 63 67 84 81 75 48 51 47 43 42 28 22 17 22 17 16 15 21 20 16 11 18 22 28 22 17 14 14 15 18 19 12 14 18 30 29 14 20 21 11 11 12 5 350 343 235 210 200 191 219 234 245 244 229 225 236 237 234 231 234 229 224 228 225 218 213 211 212 214 217 222
58 38 14 344 296 118 101 262 145 186 266 251 326 159 184 164 285 337 25 3 158 160 158 151 131 108 94 78 58 55 51 49 41 36 30 26 26 24 18 18 14 13 18 20 16 7 7 14 22 29 22 18 15 13 19 20 16 12 14 21 31 28 27 24 19 11 2 5 358 352 341 3 327 258 176 188 219 233 227 239 239 240 244 242 239 232 234 230 229 233 226 217 220 218 218 219 221
114 125 327 40 292 6 291 92 327 216 233 250 42 16 353 268 268 292 289 275 182 122 140 140 129 116 104 90 84 69 57 49 41 36 27 20 27 19 15 12 10 17 19 16 13 360 352 13 26 33 25 15 15 12 23 22 28 25 19 20 28 25 24 22 10 19 7 11 6 4 4 358 351 356 318 223 237 214 209 222 239 240 245 244 243 241 242 238 233 233 232 226 220 218 219 220 222
149 154 159 151 312 269 262 261 238 276 308 248 198 353 256 251 267 266 289 55 65 82 89 98 106 107 107 98 85 75 72 69 57 42 31 26 16 9 13 11 11 10 11 11 7 357 349 9 24 35 26 17 14 17 17 25 26 23 19 20 25 28 25 15 11 17 7 7 6 3 359 354 352 340 342 335 278 232 205 211 214 226 228 234 237 238 239 238 230 230 234 234 227 226 222 227 231
201 209 152 179 196 209 272 250 254 254 241 299 94 358 225 45 262 99 102 73 60 59 74 81 85 92 97 97 87 77 63 42 54 49 38 31 22 18 15 15 12 9 5 6 359 349 342 4 14 20 16 11 15 15 14 24 26 24 22 21 26 30 29 16 9 10 1 2 357 358 350 348 347 335 341 327 340 329 256 224 223 231 245 245 243 244 242 239 234 233 233 237 236 225 229 227 233
168 177 60 67 224 185 249 283 288 296 304 297 263 219 282 232 308 218 97 89 81 93 89 89 88 87 81 79 76 70 59 52 33 33 29 31 28 20 17 16 14 5 7 356 348 336 341 352 12 14 12 358 4 15 21 20 24 26 28 26 25 28 28 23 10 3 356 3 359 358 348 348 341 335 330 337 329 339 323 279 260 249 256 259 255 249 247 241 238 233 237 234 239 226 227 230 233
271 78 188 206 297 128 298 313 254 280 280 255 243 282 269 295 247 284 110 101 99 87 91 87 86 77 69 68 65 52 47 47 30 31 29 12 30 19 21 22 7 6 0 352 339 336 345 351 3 6 2 5 8 6 18 20 16 26 24 24 23 23 21 19 7 358 357 360 3 356 354 342 339 337 331 331 327 328 329 325 304 286 274 263 265 260 253 245 238 234 235 239 242 238 228 226 225
76 228 233 312 203 100 190 258 248 235 234 263 276 278 289 312 294 77 105 111 130 106 97 95 82 75 72 66 57 43 35 52 53 47 32 41 37 30 13 11 7 347 330 322 324 334 343 348 351 1 2 16 5 9 8 15 19 25 26 26 25 25 21 9 7 8 6 13 7 5 357 354 344 333 334 328 329 329 327 324 321 308 294 289 274 269 265 258 249 240 231 232 235 239 245 247 234
188 213 91 92 260 312 232 102 273 252 249 277 215 273 269 262 270 293 218 149 126 109 110 104 99 90 89 86 88 106 95 232 85 54 31 33 50 35 358 326 312 292 288 292 311 320 330 328 338 12 22 16 11 7 4 4 19 21 21 21 19 17 17 15 12 14 15 17 10 0 358 350 343 338 338 334 332 330 326 318 317 306 298 287 282 274 268 266 256 252 250 245 243 229 233 241 244
102 61 355 196 109 224 261 221 227 233 268 275 255 245 265 273 14 17 26 85 98 110 93 83 95 111 115 147 150 172 181 188 197 193 119 291 126 68 323 324 317 319 323 328 330 331 347 351 4 11 12 16 11 13 7 10 4 12 9 12 11 12 7 13 8 16 14 14 7 2 356 357 346 338 339 341 336 332 324 322 319 314 303 291 276 268 266 262 263 253 248 247 246 237 238 238 242
13 45 307 333 230 209 105 340 253 232 272 246 284 260 259 23 350 36 43 42 62 83 86 73 72 98 137 159 171 195 203 206 240 230 234 243 333 322 316 306 309 320 329 336 328 342 344 356 4 5 14 5 11 1 10 2 7 7 18 13 8 5 5 4 6 7 11 2 1 359 355 350 343 348 347 343 339 332 329 326 323 319 313 303 290 280 270 260 257 259 256 245 246 239 239 244 236
154 157 210 203 216 284 257 261 216 223 228 254 247 254 258 118 360 62 70 78 86 96 119 132 150 177 189 192 196 193 201 210 207 228 190 248 208 260 264 272 270 268 280 290 299 343 357 8 12 8 10 9 6 357 3 357 2 7 13 11 6 6 5 1 8 359 7 354 353 352 347 347 349 338 345 341 340 337 333 326 321 315 317 313 309 297 281 269 258 258 257 252 252 245 245 244 236